Regional Weather Roundup
Issued by NWS Green Bay, WI

Home | Current Version | Previous Version | Graphics & Text | Print | Product List | Glossary Off
Versions: 1 2 3 4 5 6 7 8 9 10 11 12 13 14 15 16 17 18 19 20 21 22 23 24 25 26 27 28 29 30 31 32 33 34 35 36 37 38 39 40 41 42 43 44 45 46 47 48 49 50

000
ASUS43 KGRB 062000
RWRGRB

NORTH-CENTRAL AND NORTHEAST WISCONSIN REGIONAL WEATHER ROUNDUP
NATIONAL WEATHER SERVICE GREEN BAY WI
300 PM CDT MON JUL 06 2015

WIZ005-009-010>012-018-019-062100-
NORTH CENTRAL WISCONSIN

CITY           SKY/WX    TMP DP  RH WIND       PRES   REMARKS
IRONWOOD       CLOUDY    55  55 100 N6        29.88S
MANITOWISH WTR NOT AVBL
ARBOR VITAE    NOT AVBL
EAGLE RIVER    NOT AVBL
LAND O LAKES   NOT AVBL
RHINELANDER    LGT RAIN  70  67  90 CALM      29.81F VSB 1
PHILLIPS       NOT AVBL
ANTIGO         NOT AVBL
TOMAHAWK       NOT AVBL
MERRILL        NOT AVBL
$$

WIZ013-073-062100-
NORTHEAST WISCONSIN

CITY           SKY/WX    TMP DP  RH WIND       PRES   REMARKS
IRON MOUNTAIN  CLOUDY    71  68  90 S7        29.79F FOG
MARINETTE      CLOUDY    73  66  78 S8        29.79F
$$

WIZ017-030-035>037-045-062100-
CENTRAL WISCONSIN

CITY           SKY/WX    TMP DP  RH WIND       PRES   REMARKS
MEDFORD        NOT AVBL
WAUSAU         LGT RAIN  75  68  78 SW8       29.79F
MOSINEE        NOT AVBL
MARSHFIELD     LGT RAIN  74  69  85 SW10      29.80F
WISC RAPIDS    CLOUDY    78  69  73 SW9       29.81F
STEVENS POINT  NOT AVBL
WAUPACA        NOT AVBL
SHAWANO        NOT AVBL
CLINTONVILLE   NOT AVBL
$$

WIZ038-039-048-051-062100-
FOX VALLEY

CITY           SKY/WX    TMP DP  RH WIND       PRES   REMARKS
NWS GREEN BAY  CLOUDY    80  71  74 S8        29.79F
APPLETON       PTSUNNY   79  66  65 S9        29.81F
OSHKOSH        CLOUDY    77  70  79 S10       29.81S
FOND DU LAC    CLOUDY    78  70  76 S12       29.82F
$$

WIZ022-050-052-062100-
EAST CENTRAL WISCONSIN

CITY           SKY/WX    TMP DP  RH WIND       PRES   REMARKS
STURGEON BAY   CLOUDY    70  64  83 S15G21    29.84F
MANITOWOC      NOT AVBL
SHEBOYGAN      CLOUDY    77  70  79 SE12      29.80F
$$

LMZ563-521-522-541>543-062100-
LAKESHORE

STATION/POSITION TIME  TEMP    WIND        PRES    VSBY  WAVE
                       AIR SEA DIR/SP/G                  HT/PER
                 (UTC) (F)     (DEG/KT/KT) (MB)    (MI)  (FT/S)
SHEBOYGAN LKSHOR 1900   64     170/ 19/ 20 1011.3F
KEWAUNEE LKSHORE 1900   61     190/ 14/ 16 1010.3F
ALGOMA MARINA    1941          220/ 12/ 13   N/A
NORTHPORT PIER   1900   65     150/  9/ 15 1010.2F
N MID LAKE BUOY  1850   59 56  200/ 16/ 17 1010.7F         3/ 4
SISTER BAY LKSHO 1914   68     180/ 17/ 21   N/A
CHAMBERS ISLAND  1900   71     150/  5/ 12 1009.5F
MENOMINEE LKSHOR 1900   68     140/ 13/ 16 1010.1F
$$


USA.gov is the U.S. government's official web portal to all federal, state and local government web resources and services.